地平线卫星 7星 (GORIZONT 7)

导读 | 豆包AI

GORIZONT 7(地平线7号)是独联体(CIS,继承自苏联航天体系)于1983年6月30日发射的地球同步轨道通信卫星,属于苏联/俄罗斯“地平线(Gorizont)”通信卫星系列。该系列卫星由应用力学设计局研制,质量约2300千克,设计寿命3年,主要承担民用与军用通信中继任务,早期还为奥运电视转播提供信号支持,是苏联统一卫星通信系统的重要组成部分。

Basic Information
目录编号:
14160
目录名称:
GORIZONT 7
国际标识:
1983-066A
轨道中心:
EARTH
卫星名称:
地平线卫星 7星
卫星全名:
地平线卫星 7星 (GORIZONT 7)
卫星状态:
在轨 (已飞行15646 天)
发射日期:
1983-06-30 UTC
国别 :
俄罗斯(独联体) (CIS)
星等 :
--
Orbit Information
数据来源 国际轨道数据 AOE轨道数据
星历时间 2026-04-30T16:10:37+0800
16小时前
查看轨道信息
2026-04-30T12:00:00+0800
20小时前
查看轨道信息
半长轴 42712.203km 42712.232km
偏心率 0.0013298 0.0013163
轨道倾角 9.424° 9.425°
近地点辐角 347.464° 347.695°
升交点赤经 312.837° 312.837°
平近点角 22.807° 320.954°
近地点 36277.267km 36277.872km
远地点 36390.865km 36390.318km
周期 1464.157分钟 1464.159分钟
每日圈数 0.983501 0.9835
Detailed Information
平衡模式:
三轴稳定
覆盖范围:
全球
运营商:
俄罗斯国家航天集团
运营商所在国:
俄罗斯
制造商(研发单位):
普里克拉德诺伊·梅哈尼基设计局
制造商所在国:
俄罗斯联邦
使用方式:
暂无
Satellite Introduction
地平线卫星(Gorizont)(俄语:Горизонт,Horizon),是1978年至2000年间发射的一系列(共35颗)俄罗斯(前苏联)地球同步通信卫星。该计划的启动是为了开发一个卫星系统来中继信号使全球覆盖1980年的莫斯科奥运会。 最初的四颗卫星是为了这个唯一目的而发射的。 此后,Gorizont系统被集成到YesSSS统一卫星通信系统中,用于中继民用和军用通信。 从1988年起,这些卫星还被用于支持Okean计划。该卫星已退役。
2D Orbit Map
3D Orbit Map
Orbit Altitude Analysis Chart
Orbit Inclination Analysis Chart
Orbit Comprehensive Analysis Chart
View Comprehensive Chart